TimeEST,TemperatureF,Dew PointF,Humidity,Sea Level PressureIn,VisibilityMPH,Wind Direction,Wind SpeedMPH,Gust SpeedMPH,PrecipitationIn,Events,Conditions,WindDirDegrees,DateUTC
12:53 AM,17.1,10.9,77,29.92,5.0,South,5.8,-,0.00,Snow,Light Snow,170,2013-12-17 05:53:00
1:53 AM,17.1,10.9,77,29.90,5.0,South,5.8,-,0.00,Snow,Light Snow,180,2013-12-17 06:53:00
2:08 AM,17.1,10.9,77,29.87,4.0,Variable,4.6,-,0.00,Snow,Light Snow,0,2013-12-17 07:08:00
2:37 AM,17.1,12.0,81,29.87,2.0,South,3.5,-,0.00,Snow,Light Snow,170,2013-12-17 07:37:00
2:53 AM,17.1,12.0,81,29.90,2.0,SSE,3.5,-,0.00,Snow,Light Snow,160,2013-12-17 07:53:00
3:39 AM,17.1,12.9,84,29.86,1.8,South,4.6,-,0.00,Snow,Light Snow,170,2013-12-17 08:39:00
3:44 AM,18.0,12.9,81,29.85,3.0,Variable,3.5,-,0.00,Snow,Light Snow,0,2013-12-17 08:44:00
3:53 AM,18.0,12.9,81,29.88,3.0,South,4.6,-,0.00,Snow,Light Snow,190,2013-12-17 08:53:00
4:32 AM,18.0,12.9,81,29.84,10.0,Variable,3.5,-,0.00,,Overcast,0,2013-12-17 09:32:00
4:53 AM,19.0,12.9,77,29.88,10.0,SW,3.5,-,0.00,,Overcast,220,2013-12-17 09:53:00
5:53 AM,19.0,15.1,85,29.87,8.0,Variable,3.5,-,N/A,,Overcast,0,2013-12-17 10:53:00
6:09 AM,19.9,15.1,81,29.84,10.0,Calm,Calm,-,N/A,,Overcast,0,2013-12-17 11:09:00
6:53 AM,19.9,17.1,89,29.87,10.0,SW,4.6,-,N/A,,Overcast,230,2013-12-17 11:53:00
7:53 AM,21.0,17.1,85,29.85,10.0,SSW,4.6,-,N/A,,Overcast,200,2013-12-17 12:53:00
8:53 AM,21.9,18.0,85,29.86,10.0,Variable,4.6,-,N/A,,Overcast,0,2013-12-17 13:53:00
9:03 AM,21.9,18.0,85,29.82,9.0,Variable,5.8,-,N/A,,Overcast,0,2013-12-17 14:03:00
9:53 AM,21.9,18.0,85,29.85,6.0,South,4.6,-,N/A,,Overcast,170,2013-12-17 14:53:00
10:53 AM,23.0,18.0,81,29.83,6.0,Variable,4.6,-,0.00,Snow,Light Snow,0,2013-12-17 15:53:00
11:36 AM,24.1,18.0,77,29.79,8.0,West,3.5,-,0.00,Snow,Light Snow,260,2013-12-17 16:36:00
11:53 AM,24.1,18.0,77,29.82,9.0,SSW,6.9,-,0.00,Snow,Light Snow,210,2013-12-17 16:53:00
12:53 PM,25.0,19.0,78,29.80,7.0,South,3.5,-,0.00,Snow,Light Snow,180,2013-12-17 17:53:00
1:53 PM,25.0,19.0,78,29.80,8.0,SW,4.6,-,0.00,,Overcast,230,2013-12-17 18:53:00
2:53 PM,26.1,19.0,75,29.81,5.0,WSW,4.6,-,0.00,Snow,Light Snow,250,2013-12-17 19:53:00
3:53 PM,25.0,19.9,81,29.83,3.0,West,9.2,-,0.00,Snow,Light Snow,280,2013-12-17 20:53:00
4:53 PM,24.1,19.0,81,29.86,3.0,WSW,6.9,-,0.00,Snow,Light Snow,250,2013-12-17 21:53:00
5:19 PM,24.1,19.0,81,29.84,3.0,West,5.8,-,0.00,Snow,Light Snow,260,2013-12-17 22:19:00
5:48 PM,24.8,19.4,80,29.84,7.0,WSW,5.8,-,0.00,Snow,Light Snow,240,2013-12-17 22:48:00
5:53 PM,24.1,19.0,81,29.88,7.0,SW,8.1,-,0.00,Snow,Light Snow,230,2013-12-17 22:53:00
6:53 PM,25.0,19.0,78,29.89,10.0,SW,4.6,-,0.00,Snow,Light Snow,220,2013-12-17 23:53:00
7:53 PM,24.1,19.0,81,29.90,10.0,South,4.6,-,0.00,,Overcast,170,2013-12-18 00:53:00
8:00 PM,24.1,19.0,81,29.87,10.0,SSW,3.5,-,N/A,,Overcast,200,2013-12-18 01:00:00
8:53 PM,23.0,19.0,85,29.91,3.0,SSW,3.5,-,0.00,Snow,Light Snow,200,2013-12-18 01:53:00
9:05 PM,23.0,19.0,85,29.88,2.0,SSW,4.6,-,0.00,Snow,Light Snow,210,2013-12-18 02:05:00
9:13 PM,23.0,19.9,88,29.88,1.5,SSW,4.6,-,0.00,Snow,Light Snow,210,2013-12-18 02:13:00
9:30 PM,24.1,19.9,84,29.88,3.0,South,3.5,-,0.00,Snow,Light Snow,180,2013-12-18 02:30:00
9:43 PM,23.0,19.9,88,29.88,6.0,South,3.5,-,0.00,,Overcast,180,2013-12-18 02:43:00
9:53 PM,23.0,19.0,85,29.91,9.0,Calm,Calm,-,0.00,,Overcast,0,2013-12-18 02:53:00
10:27 PM,23.0,19.0,85,29.89,2.0,WSW,3.5,-,0.00,Snow,Light Snow,250,2013-12-18 03:27:00
10:33 PM,24.1,19.9,84,29.88,0.8,SSW,6.9,-,0.00,Snow,Light Snow,210,2013-12-18 03:33:00
10:48 PM,24.8,21.2,86,29.88,1.0,SSW,3.5,-,0.01,Snow,Light Snow,210,2013-12-18 03:48:00
10:53 PM,24.1,21.0,88,29.91,3.0,SSW,3.5,-,0.01,Snow,Light Snow,210,2013-12-18 03:53:00
11:01 PM,24.1,21.0,88,29.88,5.0,SSW,4.6,-,0.00,Snow,Light Snow,200,2013-12-18 04:01:00
11:45 PM,24.1,21.0,88,29.88,2.5,SSW,5.8,-,0.00,Snow,Light Snow,210,2013-12-18 04:45:00
11:53 PM,24.1,21.0,88,29.92,3.0,SW,5.8,-,0.00,Snow,Light Snow,220,2013-12-18 04:53:00
11:56 PM,24.1,21.0,88,29.89,1.8,SW,5.8,-,0.00,Snow,Light Snow,230,2013-12-18 04:56:00